Year,Month,Day,Hour,Minute,Value (Times are PST for temperature in C)
2013,02,24,07,57,5.20
2013,02,24,07,58,5.20
2013,02,24,07,59,5.20
2013,02,24,08,00,5.20
2013,02,24,08,01,5.20
2013,02,24,08,02,5.20
2013,02,24,08,03,5.30
2013,02,24,08,04,5.30
2013,02,24,08,05,5.30
2013,02,24,08,06,5.30
2013,02,24,08,07,5.30
2013,02,24,08,08,5.30
2013,02,24,08,09,5.30
2013,02,24,08,10,5.30
2013,02,24,08,11,5.30
2013,02,24,08,12,5.40
2013,02,24,08,13,5.30
2013,02,24,08,14,5.30
2013,02,24,08,15,5.30
2013,02,24,08,16,5.30
2013,02,24,08,17,5.30
2013,02,24,08,18,5.30
2013,02,24,08,19,5.30
2013,02,24,08,20,5.30
2013,02,24,08,21,5.30
2013,02,24,08,22,5.30
2013,02,24,08,23,5.30
2013,02,24,09,48,5.40
2013,02,24,09,49,5.40
2013,02,24,09,50,5.40
2013,02,24,09,51,5.40
2013,02,24,09,52,5.40
2013,02,24,09,53,5.40
2013,02,24,09,54,5.40
2013,02,24,09,55,5.40
2013,02,24,09,56,5.40
2013,02,24,09,57,5.40
2013,02,24,09,58,5.40
2013,02,24,09,59,5.40
2013,02,24,10,00,5.40
2013,02,24,10,01,5.40
2013,02,24,10,02,5.40
2013,02,24,10,03,5.40
2013,02,24,10,04,5.40
2013,02,24,10,05,5.40
2013,02,24,10,06,5.40
2013,02,24,10,07,5.40
2013,02,24,10,08,5.50
2013,02,24,10,09,5.40
2013,02,24,10,10,5.40
2013,02,24,10,11,5.40
2013,02,24,10,12,5.40
2013,02,24,10,13,5.40
2013,02,24,10,14,5.40
2013,02,24,10,15,5.40
2013,02,24,10,16,5.40
2013,02,24,10,17,5.40
2013,02,24,10,18,5.40
2013,02,24,10,19,5.40
2013,02,24,10,20,5.40
2013,02,24,10,21,5.40
2013,02,24,10,22,5.40
2013,02,24,10,23,5.40
2013,02,24,10,24,5.40
2013,02,24,10,25,5.40
2013,02,24,10,26,5.40
2013,02,24,10,27,5.40
2013,02,24,10,28,5.40
2013,02,24,10,29,5.30
2013,02,24,10,30,5.30
2013,02,24,10,31,5.30
2013,02,24,10,32,5.30
2013,02,24,10,33,5.30
2013,02,24,10,34,5.30
2013,02,24,10,35,5.30
2013,02,24,10,36,5.30
2013,02,24,10,37,5.30
2013,02,24,10,38,5.30
2013,02,24,10,39,5.30
2013,02,24,10,40,5.30
2013,02,24,10,41,5.30
2013,02,24,10,42,5.30
2013,02,24,10,43,5.30
2013,02,24,10,44,5.30
2013,02,24,10,45,5.40
2013,02,24,10,46,5.40
2013,02,24,10,47,5.40
2013,02,24,10,48,5.40
2013,02,24,10,49,5.40
2013,02,24,10,50,5.40
2013,02,24,10,51,5.40
2013,02,24,10,52,5.40
2013,02,24,10,53,5.40
2013,02,24,10,54,5.40
2013,02,24,10,55,5.40
2013,02,24,10,56,5.40
2013,02,24,10,57,5.40
2013,02,24,10,58,5.40
2013,02,24,10,59,5.40
2013,02,24,11,00,5.40
2013,02,24,11,01,5.40
2013,02,24,11,02,5.40
2013,02,24,11,03,5.40
2013,02,24,11,04,5.40
2013,02,24,11,05,5.40
2013,02,24,11,06,5.40
2013,02,24,11,07,5.40
2013,02,24,11,08,5.40
2013,02,24,11,09,5.40
2013,02,24,11,10,5.40
2013,02,24,11,11,5.40
2013,02,24,11,12,5.40
2013,02,24,11,13,5.40
2013,02,24,11,14,5.40
2013,02,24,11,15,5.40
2013,02,24,11,16,5.40
2013,02,24,11,17,5.40
2013,02,24,11,18,5.30
2013,02,24,11,19,5.30
2013,02,24,11,20,5.30
2013,02,24,11,21,5.30
2013,02,24,11,22,5.30
2013,02,24,11,23,5.30
2013,02,24,11,24,5.30
2013,02,24,11,25,5.30
2013,02,24,11,26,5.20
2013,02,24,11,27,5.20
2013,02,24,11,28,5.20
2013,02,24,11,29,5.20
2013,02,24,11,30,5.20
2013,02,24,11,31,5.20
2013,02,24,11,32,5.20
2013,02,24,11,33,5.20
2013,02,24,11,34,5.20
2013,02,24,11,35,5.20
2013,02,24,11,36,5.20
2013,02,24,11,37,5.20
2013,02,24,11,38,5.20
2013,02,24,11,39,5.20
2013,02,24,11,40,5.20
2013,02,24,11,41,5.20
2013,02,24,11,42,5.20
2013,02,24,11,43,5.20
2013,02,24,11,44,5.20
2013,02,24,11,45,5.20
2013,02,24,11,46,5.20
2013,02,24,11,47,5.20
2013,02,24,11,48,5.20
2013,02,24,11,49,5.20
2013,02,24,11,50,5.20
2013,02,24,11,51,5.20
2013,02,24,11,52,5.20
2013,02,24,11,53,5.20
2013,02,24,11,54,5.20
2013,02,24,11,55,5.20
2013,02,24,11,56,5.20
2013,02,24,11,57,5.20
2013,02,24,11,58,5.20
2013,02,24,11,59,5.20
2013,02,24,12,00,5.20
2013,02,24,12,01,5.20
2013,02,24,12,02,5.20
2013,02,24,12,03,5.20
2013,02,24,12,04,5.20
2013,02,24,12,05,5.20
2013,02,24,12,06,5.20
2013,02,24,12,07,5.20
2013,02,24,12,08,5.20
2013,02,24,12,09,5.20
2013,02,24,12,10,5.20
2013,02,24,12,11,5.20
2013,02,24,12,12,5.30
2013,02,24,12,13,5.30
2013,02,24,12,14,5.30
2013,02,24,12,15,5.30
2013,02,24,12,16,5.30
2013,02,24,12,17,5.30
2013,02,24,12,18,5.30
2013,02,24,12,19,5.40
2013,02,24,12,20,5.40
2013,02,24,12,21,5.40
2013,02,24,12,22,5.40
2013,02,24,12,23,5.40
2013,02,24,12,24,5.40
2013,02,24,12,25,5.40
2013,02,24,12,26,5.40
2013,02,24,12,27,5.40
2013,02,24,12,28,5.40
2013,02,24,12,29,5.40
2013,02,24,12,30,5.40
2013,02,24,12,31,5.40
2013,02,24,12,32,5.50
2013,02,24,12,33,5.50
2013,02,24,12,34,5.50
2013,02,24,12,35,5.50
2013,02,24,12,36,5.60
2013,02,24,12,37,5.60
2013,02,24,12,38,5.50
2013,02,24,12,39,5.50
2013,02,24,12,40,5.50
2013,02,24,12,41,5.50
2013,02,24,12,42,5.50
2013,02,24,12,43,5.50
2013,02,24,12,44,5.50
2013,02,24,12,45,5.50
2013,02,24,12,46,5.40
2013,02,24,12,47,5.40
2013,02,24,12,48,5.40
2013,02,24,12,49,5.50
2013,02,24,12,50,5.50
2013,02,24,12,51,5.50
2013,02,24,12,52,5.60
2013,02,24,12,53,5.60
2013,02,24,12,54,5.60
2013,02,24,12,55,5.60
2013,02,24,12,56,5.60
2013,02,24,12,57,5.60
2013,02,24,12,58,5.60
2013,02,24,12,59,5.60
2013,02,24,13,00,5.60
2013,02,24,13,01,5.60
2013,02,24,13,02,5.60
2013,02,24,13,03,5.60
2013,02,24,13,04,5.60
2013,02,24,13,05,5.60
2013,02,24,13,06,5.60
2013,02,24,13,07,5.60
2013,02,24,13,08,5.60
2013,02,24,13,09,5.60
2013,02,24,13,10,5.70
2013,02,24,13,11,5.70
2013,02,24,13,12,5.70
2013,02,24,13,13,5.70
2013,02,24,13,14,5.70
2013,02,24,13,15,5.70
2013,02,24,13,16,5.70
2013,02,24,13,17,5.70
2013,02,24,13,18,5.70
2013,02,24,13,19,5.70
2013,02,24,13,20,5.70
2013,02,24,13,21,5.70
2013,02,24,13,22,5.70
2013,02,24,13,23,5.70
2013,02,24,13,24,5.70
2013,02,24,13,25,5.70
2013,02,24,13,26,5.70
2013,02,24,13,27,5.70
2013,02,24,13,28,5.70
2013,02,24,13,29,5.70
2013,02,24,13,30,5.70
2013,02,24,13,31,5.70
2013,02,24,13,32,5.70
2013,02,24,13,33,5.70
2013,02,24,13,34,5.70
2013,02,24,13,35,5.70
2013,02,24,13,36,5.70
2013,02,24,13,37,5.70
2013,02,24,13,38,5.70
2013,02,24,13,39,5.70
2013,02,24,13,40,5.70
2013,02,24,13,41,5.70
2013,02,24,13,42,5.70
2013,02,24,13,43,5.70
2013,02,24,13,44,5.80
2013,02,24,13,45,5.80
2013,02,24,13,46,5.80
2013,02,24,13,47,5.80
2013,02,24,13,48,5.80
2013,02,24,13,49,5.80
2013,02,24,13,50,5.80
2013,02,24,13,51,5.80
2013,02,24,13,52,5.80
2013,02,24,13,53,5.80
2013,02,24,13,54,5.80
2013,02,24,13,55,5.80
2013,02,24,13,56,5.80
2013,02,24,13,57,5.80
2013,02,24,13,58,5.90
2013,02,24,13,59,5.80
2013,02,24,14,00,5.90
2013,02,24,14,01,5.90
2013,02,24,14,02,5.90
2013,02,24,14,03,5.90
2013,02,24,14,04,5.90
2013,02,24,14,05,5.90
2013,02,24,14,06,5.90
2013,02,24,14,07,6.00
2013,02,24,14,08,6.00
2013,02,24,14,09,6.10
2013,02,24,14,10,6.10
2013,02,24,14,11,6.10
2013,02,24,14,12,6.20
2013,02,24,14,13,6.20
2013,02,24,14,14,6.20
2013,02,24,14,15,6.20
2013,02,24,14,16,6.20
2013,02,24,14,17,6.20
2013,02,24,14,18,6.20
2013,02,24,14,19,6.20
2013,02,24,14,20,6.20
2013,02,24,14,21,6.20
2013,02,24,14,22,6.20
2013,02,24,14,23,6.20
2013,02,24,14,24,6.20
2013,02,24,14,25,6.20
2013,02,24,14,26,6.20
2013,02,24,14,27,6.20
2013,02,24,14,28,6.30
2013,02,24,14,29,6.30
2013,02,24,14,30,6.30
2013,02,24,14,31,6.30
2013,02,24,14,32,6.30
2013,02,24,14,33,6.30
2013,02,24,14,34,6.30
2013,02,24,14,35,6.30
2013,02,24,14,36,6.30
2013,02,24,14,37,6.30
2013,02,24,14,38,6.30
2013,02,24,14,39,6.40
2013,02,24,14,40,6.40
2013,02,24,14,41,6.40
2013,02,24,14,42,6.40
2013,02,24,14,43,6.40
2013,02,24,14,44,6.40
2013,02,24,14,45,6.40
2013,02,24,14,46,6.40
2013,02,24,14,47,6.40
2013,02,24,14,48,6.40
2013,02,24,14,49,6.40
2013,02,24,14,50,6.40
2013,02,24,14,51,6.40
2013,02,24,14,52,6.40
2013,02,24,14,53,6.40
2013,02,24,14,54,6.40
2013,02,24,14,55,6.40
2013,02,24,14,56,6.40
2013,02,24,14,57,6.50
2013,02,24,14,58,6.50
2013,02,24,14,59,6.50
2013,02,24,15,00,6.50
2013,02,24,15,01,6.50
2013,02,24,15,02,6.50
2013,02,24,15,03,6.50
2013,02,24,15,04,6.50
2013,02,24,15,05,6.50
2013,02,24,15,06,6.60
2013,02,24,15,07,6.60
2013,02,24,15,08,6.60
2013,02,24,15,09,6.60
2013,02,24,15,10,6.60
2013,02,24,15,11,6.60
2013,02,24,15,12,6.60
2013,02,24,15,13,6.60
2013,02,24,15,14,6.60
2013,02,24,15,15,6.60
2013,02,24,15,16,6.60
2013,02,24,15,17,6.60
2013,02,24,15,18,6.60
2013,02,24,15,19,6.60
2013,02,24,15,20,6.60
2013,02,24,15,21,6.60
2013,02,24,15,22,6.60
2013,02,24,15,23,6.60
2013,02,24,15,24,6.60
2013,02,24,15,25,6.70
2013,02,24,15,26,6.60
2013,02,24,15,27,6.60
2013,02,24,15,28,6.60
2013,02,24,15,29,6.60
2013,02,24,15,30,6.60
2013,02,24,15,31,6.60
2013,02,24,15,32,6.60
2013,02,24,15,33,6.60
2013,02,24,15,34,6.60
2013,02,24,15,35,6.60
2013,02,24,15,36,6.50
2013,02,24,15,37,6.50
2013,02,24,15,38,6.50
2013,02,24,15,39,6.50
2013,02,24,15,40,6.50
2013,02,24,15,41,6.50
2013,02,24,15,42,6.50
2013,02,24,15,43,6.50
2013,02,24,15,44,6.50
2013,02,24,15,45,6.50
2013,02,24,15,46,6.50
2013,02,24,15,47,6.50
2013,02,24,15,48,6.50
2013,02,24,15,49,6.50
2013,02,24,15,50,6.50
2013,02,24,15,51,6.50
2013,02,24,15,52,6.50
2013,02,24,15,53,6.50
2013,02,24,15,54,6.50
2013,02,24,15,55,6.50
2013,02,24,15,56,6.40
2013,02,24,15,57,6.50
2013,02,24,15,58,6.50
2013,02,24,15,59,6.40
2013,02,24,16,00,6.40
2013,02,24,16,01,6.40
2013,02,24,16,02,6.40
2013,02,24,16,03,6.40
2013,02,24,16,04,6.40
2013,02,24,16,05,6.40
2013,02,24,16,06,6.40
2013,02,24,16,07,6.40
2013,02,24,16,08,6.40
2013,02,24,16,09,6.40
2013,02,24,16,10,6.40
2013,02,24,16,11,6.40
2013,02,24,16,12,6.40
2013,02,24,16,13,6.40
2013,02,24,16,14,6.40
2013,02,24,16,15,6.40
2013,02,24,16,16,6.40
2013,02,24,16,17,6.40
2013,02,24,16,18,6.40
2013,02,24,16,19,6.40
2013,02,24,16,20,6.40
2013,02,24,16,21,6.40
2013,02,24,16,22,6.40
2013,02,24,16,23,6.40
2013,02,24,16,24,6.40
2013,02,24,16,25,6.30
2013,02,24,16,26,6.30
2013,02,24,16,27,6.30
2013,02,24,16,28,6.30
2013,02,24,16,29,6.30
2013,02,24,16,30,6.30
2013,02,24,16,31,6.30
2013,02,24,16,32,6.30
2013,02,24,16,33,6.30
2013,02,24,16,34,6.30
2013,02,24,16,35,6.30
2013,02,24,16,36,6.30
2013,02,24,16,37,6.30
2013,02,24,16,38,6.30
2013,02,24,16,39,6.30
2013,02,24,16,40,6.30
2013,02,24,16,41,6.30
2013,02,24,16,42,6.30
2013,02,24,16,43,6.30
2013,02,24,16,44,6.30
2013,02,24,16,45,6.30
2013,02,24,16,46,6.30
2013,02,24,16,47,6.30
2013,02,24,16,48,6.30
2013,02,24,16,49,6.30
2013,02,24,16,50,6.30
2013,02,24,16,51,6.30
2013,02,24,16,52,6.30
2013,02,24,16,53,6.30
2013,02,24,16,54,6.30
2013,02,24,16,55,6.20
2013,02,24,16,56,6.20
2013,02,24,16,57,6.20
2013,02,24,16,58,6.20
2013,02,24,16,59,6.20
2013,02,24,17,00,6.20
2013,02,24,17,01,6.20
2013,02,24,17,02,6.20
2013,02,24,17,03,6.20
2013,02,24,17,04,6.20
2013,02,24,17,05,6.20
2013,02,24,17,06,6.20
2013,02,24,17,07,6.20
2013,02,24,17,08,6.20
2013,02,24,17,09,6.20
2013,02,24,17,10,6.20
2013,02,24,17,11,6.20
2013,02,24,17,12,6.20
2013,02,24,17,13,6.20
2013,02,24,17,14,6.20
2013,02,24,17,15,6.20
2013,02,24,17,16,6.20
2013,02,24,17,17,6.20
2013,02,24,17,18,6.20
2013,02,24,17,19,6.20
2013,02,24,17,20,6.20
2013,02,24,17,21,6.20
2013,02,24,17,22,6.20
2013,02,24,17,23,6.20
2013,02,24,17,24,6.10
2013,02,24,17,25,6.10
2013,02,24,17,26,6.10
2013,02,24,17,27,6.10
2013,02,24,17,28,6.10
2013,02,24,17,29,6.10
2013,02,24,17,30,6.10
2013,02,24,17,31,6.10
2013,02,24,17,32,6.10
2013,02,24,17,33,6.10
2013,02,24,17,34,6.10
2013,02,24,17,35,6.10
2013,02,24,17,36,6.10
2013,02,24,17,37,6.10
2013,02,24,17,38,6.10
2013,02,24,17,39,6.10
2013,02,24,17,40,6.10
2013,02,24,17,41,6.10
2013,02,24,17,42,6.10
2013,02,24,17,43,6.10
2013,02,24,17,44,6.10
2013,02,24,17,45,6.20
2013,02,24,17,46,6.20
2013,02,24,17,47,6.20
2013,02,24,17,48,6.20
2013,02,24,17,49,6.20
2013,02,24,17,50,6.20
2013,02,24,17,51,6.20
2013,02,24,17,52,6.20
2013,02,24,17,53,6.20
2013,02,24,17,54,6.10
2013,02,24,17,55,6.20
2013,02,24,17,56,6.20
2013,02,24,17,57,6.20
2013,02,24,17,58,6.20
2013,02,24,17,59,6.20
2013,02,24,18,00,6.20
2013,02,24,18,01,6.20
2013,02,24,18,02,6.20
2013,02,24,18,03,6.20
2013,02,24,18,04,6.20
2013,02,24,18,05,6.20
2013,02,24,18,06,6.20
2013,02,24,18,07,6.20
2013,02,24,18,08,6.20
2013,02,24,18,09,6.20
2013,02,24,18,10,6.20
2013,02,24,18,11,6.20
2013,02,24,18,12,6.10
2013,02,24,18,13,6.10
2013,02,24,18,14,6.10
2013,02,24,18,15,6.10
2013,02,24,18,16,6.10
2013,02,24,18,17,6.10
2013,02,24,18,18,6.10
2013,02,24,18,19,6.10
2013,02,24,18,20,6.10
2013,02,24,18,21,6.10
2013,02,24,18,22,6.10
